RH
44 42 40 38 37 37 37 36 35 34 35 36 38 37 35 33 31 30 29 28 27 26 25 24 24 24 24 23 23 22 22 21 21 21 20 19 19 18 18 17 17 17 16 16 15 15 15 14 14 13 12 12
45 43 41 40 40 40 39 38 37 37 38 38 38 37 35 33 32 31 30 29 28 27 26 25 25 25 24 24 24 23 23 22 22 21 20 20 19 19 18 17 17 16 16 15 15 15 14 14 13 13 12 12
47 45 44 43 42 42 40 39 39 39 39 38 38 37 36 34 33 31 30 29 28 27 26 26 25 25 25 25 25 24 24 23 22 21 21 20 19 19 18 17 17 16 16 15 15 14 14 13 13 13 12 12
48 46 46 45 44 42 41 40 40 40 39 39 38 37 36 34 33 32 31 29 28 28 27 26 26 26 25 25 25 24 23 22 22 21 20 19 19 18 17 17 16 16 15 14 14 14 13 13 13 12 12 11
49 48 48 47 46 44 42 41 40 41 41 40 39 37 36 35 33 32 31 30 29 28 27 27 26 25 25 24 24 23 22 22 21 20 19 19 18 17 16 16 15 15 14 14 14 13 13 12 12 12 12 11
51 51 50 50 49 47 45 43 42 42 41 40 39 38 36 35 34 32 31 30 29 28 27 27 26 25 25 24 23 22 22 21 20 19 19 18 17 17 16 15 15 14 14 13 13 12 12 12 11 11 11 11
52 52 52 52 51 49 47 46 44 43 42 41 40 38 37 35 34 32 31 30 29 28 28 27 26 26 25 24 23 22 22 21 20 19 18 17 17 16 15 15 14 14 13 13 13 12 12 11 11 11 10 10
54 53 53 52 51 50 48 47 46 45 43 41 40 39 38 36 35 33 32 31 30 29 28 27 26 26 25 24 23 22 21 20 20 19 18 17 16 16 15 14 14 13 13 13 12 12 12 11 11 11 10 9
55 54 54 53 51 50 49 48 47 46 45 43 42 40 39 38 36 35 33 32 30 29 28 27 26 25 24 24 23 22 21 20 19 18 17 16 15 15 14 14 13 13 12 12 12 12 11 11 11 11 10 10
55 56 55 54 53 52 52 50 49 47 46 45 43 42 40 38 37 35 34 32 30 29 28 27 26 25 24 23 22 21 20 19 18 17 16 16 15 14 14 13 13 12 12 11 11 11 11 11 10 10 10 10
58 58 58 57 56 54 53 51 50 49 48 47 44 42 40 39 37 36 34 33 31 30 28 27 26 25 24 22 21 20 19 19 18 17 16 15 15 14 14 13 12 12 11 11 11 10 10 10 10 10 9 10
59 59 60 58 56 54 52 51 49 48 47 46 44 42 41 39 37 36 34 33 31 30 28 27 25 24 23 22 22 21 20 19 19 18 17 16 16 15 14 13 13 12 11 11 10 10 10 9 9 9 9 9
59 60 59 57 55 53 51 49 47 46 45 45 44 43 41 40 38 36 34 32 31 29 28 27 26 25 24 23 22 22 21 21 20 20 19 18 17 16 15 15 13 13 12 11 10 10 9 9 9 8 8 8
59 58 56 53 51 50 48 46 45 44 44 43 43 42 41 40 38 36 34 32 31 30 29 27 27 26 25 24 23 23 23 22 22 21 20 19 18 17 16 15 14 13 12 11 11 10 9 9 9 8 8 7
58 55 54 52 50 49 47 46 45 44 44 43 43 42 40 39 37 35 33 32 31 29 29 28 27 26 26 25 24 23 23 22 22 21 20 20 18 18 16 15 14 13 12 11 10 10 9 9 8 8 7 7
56 55 53 52 51 50 48 47 46 45 44 42 40 39 37 36 34 33 32 31 30 29 28 28 27 27 26 24 23 23 22 22 21 20 19 18 18 16 15 14 13 12 11 10 10 9 8 8 7 7 7 6
53 52 51 50 49 48 46 44 43 41 40 38 36 35 34 33 32 31 31 30 29 28 27 27 26 25 24 22 22 21 21 20 19 18 17 16 16 15 14 13 12 11 10 9 9 8 7 7 7 6 6 6
48 47 45 45 43 42 41 39 38 37 36 35 34 33 32 31 30 29 28 27 26 25 24 23 22 21 20 19 19 18 18 17 16 15 15 14 13 12 12 11 10 9 9 8 7 7 7 6 6 6 6 5
43 42 41 39 38 37 36 36 36 35 34 33 33 32 30 29 27 26 25 23 22 21 20 19 18 17 17 16 15 15 14 14 13 13 12 11 11 10 9 9 8 8 7 7 6 6 6 5 5 5 5 5
41 40 39 37 36 35 34 34 33 33 32 31 31 30 28 26 24 23 21 20 19 17 17 16 15 14 13 13 12 12 11 11 10 10 10 9 8 8 8 7 7 7 6 6 6 5 5 5 5 4 4 4
40 39 38 36 35 34 33 32 31 30 29 28 28 26 25 23 21 19 18 17 15 14 13 12 12 12 11 10 10 10 10 10 9 9 8 8 8 7 7 7 7 6 6 6 5 5 5 5 4 4 4 4
37 36 35 33 33 31 30 30 28 27 26 24 23 21 20 18 16 15 14 13 12 11 11 11 10 10 10 10 10 10 10 10 9 9 8 8 8 8 7 7 6 6 6 5 5 5 5 4 4 4 4 4
31 30 29 28 27 26 25 24 22 21 20 18 17 16 15 14 13 13 12 12 11 11 11 11 11 10 10 10 10 10 10 10 9 8 8 8 7 7 7 6 6 5 5 5 4 4 4 4 4 4 4 3
25 23 22 21 20 19 18 17 16 16 15 15 15 15 14 14 14 13 13 13 12 12 12 11 11 10 10 9 9 9 8 8 7 7 6 6 6 5 5 5 4 4 4 4 3 3 3 3 3 3 2 3
17 17 16 15 15 15 15 15 15 16 16 16 16 16 16 15 15 14 13 12 11 11 10 9 9 8 7 7 7 6 6 5 5 5 4 4 4 3 3 3 3 3 3 3 3 2 2 2 2 2 2 2
16 16 16 16 17 17 17 17 17 18 18 17 16 15 15 14 12 11 10 9 9 8 7 7 6 5 5 4 4 4 4 3 3 3 3 3 3 2 3 2 2 2 2 2 2 2 2 2 2 2 2 2
20 19 18 18 18 17 17 16 16 15 14 13 12 11 10 9 8 7 7 6 5 5 5 4 4 4 3 3 3 3 3 3 3 3 2 2 2 2 2 2 2 2 2 2 2 2 2 2 2 2 2 2
15 14 13 13 12 12 11 10 10 9 9 8 7 7 6 6 5 5 4 4 4 4 4 3 3 3 3 3 3 3 3 3 3 3 3 3 2 3 3 3 3 2 3 3 2 3 2 2 2 2 2 2
8 8 7 7 7 7 7 7 6 6 6 5 5 5 5 5 5 5 4 4 4 4 4 4 4 4 3 4 3 3 3 3 4 3 3 3 3 3 3 3 3 3 3 3 3 3 3 3 3 2 3 2
7 6 7 7 7 7 7 7 7 6 6 6 6 6 6 6 5 5 5 5 5 5 6 6 5 5 5 5 4 4 4 4 4 4 4 4 4 4 4 4 4 3 3 3 3 3 3 3 3 3 3 2
8 8 8 8 8 8 8 8 8 8 8 7 8 8 7 8 7 7 7 6 7 6 6 7 7 6 6 6 6 5 5 5 5 5 5 5 5 5 5 5 5 4 4 4 4 3 3 3 3 3 3 3
Wind_Speed
60 61 61 60 60 60 61 61 61 60 60 60 60 60 61 61 61 62 62 62 62 62 61 61 61 61 61 61 61 61 61 61 62 62 63 63 64 65 66 66 66 66 67 68 68 68 68 68 69 69 70 71
61 61 61 61 61 61 62 62 62 61 61 61 61 61 62 62 62 63 63 63 62 63 63 63 63 63 63 63 63 63 64 64 64 65 65 66 67 68 69 69 69 70 70 71 71 71 72 72 71 72 72 73
62 62 62 62 62 63 63 63 63 62 62 62 62 62 63 63 63 63 63 63 63 64 64 64 64 65 65 65 65 66 66 67 67 67 68 69 70 71 72 72 72 73 74 74 74 75 75 75 75 75 75 75
63 63 64 64 64 64 64 64 64 63 63 63 63 64 64 64 64 64 65 65 65 65 65 66 66 67 67 68 68 68 69 69 70 70 71 72 72 74 75 75 75 76 77 78 78 78 78 78 78 78 78 79
64 65 65 65 65 65 65 65 65 65 65 65 65 65 65 65 65 65 66 66 66 67 67 68 68 69 69 70 71 71 71 72 72 73 74 74 75 77 77 77 78 79 80 80 81 82 82 82 82 81 81 81
66 66 66 67 67 67 67 67 67 67 67 67 67 67 67 67 67 67 67 67 68 68 69 70 70 71 72 72 73 74 74 75 75 76 76 77 78 79 79 79 80 81 81 82 83 84 85 85 85 85 85 85
67 67 68 69 69 69 69 69 69 69 69 69 68 68 68 68 69 69 69 69 70 71 71 72 72 73 74 75 76 76 77 77 78 79 79 80 80 81 82 82 82 83 83 84 84 85 86 87 88 88 89 89
69 70 70 71 71 71 72 72 72 72 71 71 70 70 71 71 71 71 71 72 73 73 74 74 75 75 76 77 78 79 80 80 81 81 82 83 83 84 85 85 85 86 86 86 86 87 87 88 88 89 90 92
71 72 73 73 73 73 74 74 74 74 74 74 73 73 73 73 73 74 74 75 75 76 76 77 77 78 79 80 80 81 82 83 84 84 85 86 86 87 87 88 88 89 89 89 89 89 89 89 89 90 91 92
74 74 75 76 76 76 76 77 77 77 77 76 76 76 76 76 75 76 76 77 78 78 79 79 80 80 81 82 83 84 84 85 86 87 88 88 89 90 90 91 91 92 92 92 92 92 91 91 91 92 92 93
76 77 78 78 79 79 79 79 79 79 79 79 79 79 78 78 78 78 79 79 80 80 81 81 82 82 83 84 84 85 86 87 88 89 89 90 91 92 93 93 94 94 94 94 94 94 94 94 94 94 94 94
79 81 81 82 82 82 81 81 81 81 81 81 81 81 81 81 81 81 81 82 82 82 82 83 83 84 84 85 86 87 87 88 89 90 91 92 93 94 95 95 96 96 96 96 96 96 96 96 95 95 96 96
83 84 85 85 85 84 84 84 84 83 83 83 84 84 84 84 84 84 84 84 84 84 84 85 85 86 87 87 88 88 89 90 91 92 93 94 95 96 97 97 98 98 98 98 98 98 97 97 97 97 97 97
87 88 88 88 87 87 87 86 86 86 86 86 87 87 87 87 88 87 87 87 87 87 88 88 88 89 90 90 91 91 92 93 94 95 96 96 97 98 99 99 99 99 100 100 100 100 99 98 98 98 98 98
91 91 91 90 90 90 90 90 90 90 90 90 90 91 91 91 91 91 91 91 91 91 92 92 92 93 94 94 95 95 95 96 97 98 98 99 100 100 101 101 101 101 101 101 101 101 100 100 99 99 99 99
94 94 94 94 94 94 94 94 94 94 94 95 95 94 94 94 94 95 95 95 95 95 96 96 97 97 98 98 98 98 99 99 100 100 101 101 102 102 102 102 102 102 102 102 102 102 101 101 100 100 100 100
98 98 98 97 97 98 98 97 97 97 98 98 98 98 97 98 98 98 99 99 99 99 99 100 100 101 101 101 100 101 102 102 102 102 102 103 103 103 103 103 103 103 103 103 103 102 102 102 101 101 101 101
101 101 101 101 101 101 101 100 100 100 101 101 101 102 102 102 102 102 103 103 103 103 102 103 103 103 103 102 102 102 103 104 104 104 104 104 104 104 104 104 103 103 103 103 103 103 103 102 102 102 102 102
104 104 105 105 105 104 104 103 103 104 105 105 105 106 106 107 107 106 106 106 106 105 105 105 105 105 104 103 103 103 104 104 105 105 105 105 105 105 104 104 104 104 104 104 103 103 103 103 103 103 103 103
108 109 109 109 109 109 108 108 108 108 109 109 109 110 110 110 110 109 109 108 108 107 107 106 106 106 105 104 104 104 104 105 105 105 106 106 105 105 105 105 104 104 104 104 104 104 104 103 103 103 103 103
113 114 114 114 114 114 113 113 112 113 113 112 113 113 113 113 112 111 111 110 110 109 108 107 107 107 106 106 105 105 105 106 106 106 106 106 105 105 105 105 105 105 104 104 104 105 104 104 104 104 104 104
117 117 118 118 118 117 117 116 116 116 115 115 115 115 115 114 114 113 112 112 111 110 109 109 109 108 108 108 107 106 106 107 107 107 106 106 106 106 106 106 106 106 105 105 105 105 105 105 104 104 104 105
119 119 119 119 119 119 118 118 117 117 117 116 116 116 116 116 115 115 114 114 113 112 111 111 111 110 110 109 108 108 107 108 108 107 107 106 106 107 107 107 107 106 106 106 106 106 106 105 105 105 105 105
120 120 120 119 119 118 118 118 118 118 117 117 117 117 117 117 117 116 116 115 114 113 113 113 112 112 111 110 109 109 108 109 108 108 107 107 107 107 107 107 107 107 106 106 106 106 106 106 105 105 105 105
120 120 120 120 119 119 119 119 119 119 119 119 119 119 119 118 118 117 117 116 115 115 114 114 113 112 112 111 110 109 109 109 108 107 107 106 106 106 106 106 106 106 106 105 105 106 105 105 104 104 104 104
121 121 121 121 121 121 121 121 121 121 121 121 121 121 120 120 119 118 118 117 116 115 115 115 114 113 112 111 110 109 108 108 108 107 106 105 105 105 105 105 105 105 104 104 104 104 104 104 103 103 103 103
123 123 123 123 122 122 122 122 122 122 122 122 122 121 121 120 119 119 118 117 116 115 115 115 114 113 112 112 111 110 108 108 107 107 106 105 104 104 104 104 104 104 103 103 103 103 102 103 103 102 102 101
122 122 122 122 122 122 121 122 122 122 122 122 121 120 120 119 119 118 118 117 116 115 115 115 114 113 112 112 111 110 109 108 107 107 105 105 104 103 102 103 103 103 103 103 102 101 101 102 102 101 101 100
119 119 119 120 120 120 120 120 120 120 120 120 119 118 118 118 118 117 117 116 115 114 114 113 113 112 112 111 111 110 108 107 107 106 105 105 104 102 101 102 103 103 103 102 101 101 100 101 100 100 100 99
118 118 118 118 118 118 118 118 118 118 118 118 117 116 116 116 116 115 115 114 113 112 111 111 111 111 110 110 109 109 107 106 105 105 104 104 102 101 101 102 102 103 103 102 101 101 100 99 99 99 100 99
116 116 116 116 116 116 116 116 116 116 116 115 115 114 114 114 114 113 113 112 112 111 110 108 108 108 108 108 107 107 105 104 103 102 102 101 100 99 99 100 101 102 102 102 101 101 100 99 99 99 99 98
Wind_Direction
269 268 268 267 266 265 265 264 263 262 260 259 259 258 258 258 259 259 259 258 257 257 256 256 256 257 257 257 258 258 258 258 259 259 259 258 258 258 258 258 259 259 259 259 259 260 260 260 261 262 262 262
268 267 267 266 266 265 264 263 262 261 260 259 259 259 259 259 260 260 260 259 259 258 258 258 258 258 258 258 258 259 259 259 259 259 259 259 258 258 258 259 259 259 259 259 259 260 260 260 261 261 262 262
267 266 266 266 265 265 264 263 262 261 261 260 259 259 260 260 261 261 261 260 260 259 259 259 259 259 259 259 260 260 260 260 259 259 259 259 259 259 258 258 259 259 259 259 259 260 260 260 261 261 261 261
266 266 266 266 266 265 265 264 263 262 261 261 260 260 260 261 261 261 261 261 260 260 260 260 260 260 260 260 260 260 260 260 259 259 259 259 258 258 258 258 259 259 259 259 259 260 260 261 261 262 262 262
266 266 267 267 267 267 266 265 264 263 263 262 262 261 261 261 261 261 261 261 260 260 260 260 260 260 260 261 261 261 261 260 260 259 259 259 259 258 258 258 259 259 259 260 260 260 260 260 261 261 262 262
267 267 268 269 269 269 268 267 266 265 264 263 263 262 262 262 262 261 262 262 261 261 260 260 261 261 261 261 261 261 261 261 261 260 260 259 259 259 259 259 259 259 260 260 260 261 261 261 261 261 261 261
268 268 269 269 269 269 269 268 267 266 265 265 264 264 263 263 263 262 262 262 262 262 261 261 261 261 262 262 262 262 262 262 262 261 261 261 260 260 260 260 260 260 260 261 261 261 262 262 262 262 262 261
269 269 269 270 270 270 270 269 269 268 267 266 266 266 265 265 264 264 264 263 263 263 262 262 262 262 262 262 262 263 262 262 262 262 262 261 261 261 261 261 261 261 261 261 261 262 262 263 263 263 263 263
269 270 270 270 270 270 270 270 270 269 269 269 268 267 267 266 266 266 265 265 264 264 263 263 263 263 263 263 263 263 263 263 262 262 262 262 262 262 262 262 261 262 262 262 262 262 262 263 263 264 264 264
270 271 271 271 271 271 271 270 271 270 270 270 270 269 269 268 268 267 267 266 265 265 265 264 264 264 264 264 264 264 264 264 264 263 263 263 263 263 263 263 263 262 262 262 262 262 262 263 263 263 264 264
272 272 272 272 272 271 271 271 271 272 272 271 271 270 270 269 269 269 268 267 267 266 266 265 265 265 265 265 266 266 266 266 266 265 265 265 265 264 264 264 264 264 263 263 263 263 263 263 263 263 264 264
273 273 273 273 272 273 273 273 272 272 273 272 272 272 271 271 270 270 269 269 268 268 268 267 267 267 267 267 267 267 268 268 268 268 268 267 267 267 266 266 266 265 265 265 264 264 264 264 264 264 264 264
273 272 272 272 273 273 273 273 273 273 273 273 273 273 273 272 272 271 271 271 270 270 270 270 269 269 269 269 269 269 270 270 270 270 270 269 269 269 269 268 268 267 267 267 266 265 265 265 265 265 264 264
272 272 273 273 274 274 274 274 275 274 274 274 274 274 273 273 273 273 273 273 273 273 272 272 272 272 271 271 271 271 271 271 271 271 271 271 271 271 270 270 269 269 269 268 268 267 267 267 267 266 266 266
273 274 275 275 276 276 276 276 276 276 276 276 275 274 274 275 275 275 275 275 275 274 274 274 274 274 273 273 273 273 273 273 273 273 272 272 272 272 271 271 271 270 270 269 269 269 269 268 268 268 267 267
275 275 276 276 276 277 277 277 277 277 277 276 276 276 276 276 276 276 276 276 276 275 275 275 275 275 274 274 274 274 274 274 274 274 273 273 273 273 272 272 272 271 271 270 270 270 269 269 269 269 268 268
275 275 276 276 276 276 276 277 277 277 277 277 277 277 277 277 277 277 276 276 276 276 276 276 275 275 275 275 275 275 276 275 275 275 274 274 274 274 273 273 272 272 272 271 271 271 270 270 270 269 269 268
276 276 277 277 277 276 277 277 277 277 277 278 278 278 278 278 278 277 277 277 277 277 276 276 276 276 276 275 276 276 276 276 275 275 275 274 274 274 273 273 273 273 272 272 272 271 271 271 270 270 269 269
277 277 277 277 277 277 277 277 277 278 278 278 278 279 279 279 278 278 278 278 278 277 277 277 276 276 276 276 276 276 275 275 275 275 275 274 274 274 274 273 273 273 273 272 272 272 271 271 271 270 270 270
277 277 277 277 277 277 278 278 278 278 278 278 278 279 279 279 279 278 278 278 278 277 277 276 276 276 276 275 275 275 275 274 274 274 274 274 274 274 274 274 273 273 273 272 272 272 272 271 271 271 271 270
276 276 276 277 277 277 278 278 278 278 279 279 279 279 279 279 279 278 278 278 277 277 276 276 276 275 275 275 275 274 274 274 273 273 273 273 274 274 274 274 273 273 273 273 273 272 272 272 271 271 271 271
275 275 276 276 277 277 278 278 279 279 279 279 279 279 278 278 278 278 277 277 276 276 276 275 275 275 274 274 274 274 274 274 273 273 273 273 273 274 274 273 273 273 273 273 273 273 273 272 272 272 272 271
275 275 276 277 277 278 278 278 278 278 278 278 278 277 277 277 277 276 276 276 275 275 275 274 274 274 273 273 273 273 273 273 273 273 273 273 273 273 273 273 273 273 273 273 273 273 273 273 272 272 272 271
275 276 276 276 277 277 277 277 277 277 277 276 276 276 275 275 275 275 275 274 274 274 274 273 273 273 273 273 273 273 273 273 273 273 273 273 273 273 273 273 273 273 273 273 273 273 273 272 272 272 271 271
276 276 276 276 276 276 276 276 276 276 276 275 275 275 275 274 274 274 274 274 274 274 274 273 273 273 273 273 273 273 273 273 273 272 272 272 272 272 272 272 272 272 272 272 272 272 272 272 271 271 271 270
276 276 276 276 276 276 276 276 276 276 275 275 275 275 275 275 275 275 275 275 275 275 275 274 274 274 274 273 273 273 273 273 272 272 272 272 272 272 272 272 272 272 272 272 272 272 272 272 271 271 271 270
276 276 276 276 276 276 276 276 276 276 276 276 276 276 276 276 276 276 276 276 276 276 276 276 276 276 275 275 274 274 274 273 273 273 273 272 273 273 273 273 273 272 272 272 272 272 273 272 272 271 271 271
275 276 276 276 277 277 277 277 277 277 277 277 277 277 278 278 278 278 278 278 278 278 278 278 278 277 277 277 276 276 276 276 275 275 275 275 274 274 275 275 274 274 273 273 273 273 273 273 273 272 272 271
275 275 276 276 276 277 277 277 277 277 277 277 278 278 278 278 278 278 278 278 278 278 278 279 279 278 278 278 278 278 278 278 277 277 277 277 277 276 276 276 275 275 274 274 274 273 273 273 273 273 272 272
275 275 275 275 275 275 276 276 276 277 277 277 277 277 277 277 278 278 278 278 278 278 278 278 278 278 278 279 279 279 279 278 278 278 278 278 278 277 277 276 276 275 275 274 274 273 273 273 273 273 273 272
274 274 274 274 274 274 274 275 275 276 276 276 276 276 276 276 276 276 276 276 277 277 277 277 277 277 277 278 278 278 278 278 278 278 277 277 277 277 276 276 275 275 275 275 274 274 274 274 274 273 273 273